Погода в Магнитогорске

Хотите узнать прогноз погоды в Магнитогорске? Тогда Вам сюда: Погода в Магнитогорске

Поиск расширенной информации на нашем сайте:

Полезная информация:

Новости сайта



02.01.2020
Опубликован Долгосрочный прогноз погоды по городам России и ближнего зарубежья на январь 2020 года.
Карты: Прогноз на январь и февраль 2020 года, Сравнение прогнозируемой аномалии приземной температуры воздуха на январь 2020 года по разным моделям.




Погода в Магнитогорске - сегодня

Время (UTC), дата Ветер
(°,м/с) 
Видим.   Явления Облачность Т
(°С)
Тd
(°С)
f(%) Тe
(°С)
Pmin
(гПа)
dP
(гПа)
Po
(мм)
O2
(г/м3)
Тmin Tmax R s Состояние
почвы
18 24.01.20 240 (ЮЗ) 10 км    ясно 
-11 -15.1 72 -17  1005.5  1.1  718  302           
21 24.01.20 250 (З) 10 км    6/0 средняя 
[Ac trans]
-10.6 -15 70 -15  1006  0.5  718  302           
00 25.01.20 220 (ЮЗ) 10 км    8/0 средняя 
[Ac trans]
-12.2 -17 67 -16  1006.6  0.2  718  304           
03 25.01.20 230 (ЮЗ) 10 км    4/0 средняя 
[Ac trans]
-11.9 -16.2 70 -17  1005.3  -1.1  717  303  -13.8      25  равномерный
мокрый или
старый снег
100% 
06 25.01.20 200 (Ю) 20000 м    9/0 средняя 
[Ac trans]
-11 -14.8 73 -17  1004.2  -0.9  717  302           
09 25.01.20 190 (Ю) 7-10{14}  20000 м  позёмок  10/0 средняя 
[As trans]
-11.5 -14.1 81 -18  1001.8  -2.4  715  302           
12 25.01.20 210 (ЮЗ) 4{12}  20000 м  позёмок  10/0 средняя 
[As trans]
-10 -13.4 76 -14  1000.7  -0.7  714  300           
15 25.01.20 230 (ЮЗ) 4{11}  10 км  позёмок  ясно 
-10.7 -13.7 79 -15  1000.4  -0.4  714  301    -9.4       
18 25.01.20 190 (Ю) 5{11}  10 км  позёмок  4/0 средняя 
[Ac trans]
-8.6 -11.5 79 -13  999.4  -0.6  713  298           
21 25.01.20 220 (ЮЗ) 6-10{11}  10 км  позёмок  10/0 средняя 
[As trans]
-6.8 -8.8 86 -12  996.9  -2.1  712  295           
00 26.01.20 190 (Ю) 7-10{11}  10 км  позёмок  10/0 средняя 
[As trans]
-5.8 -7.3 89 -11  993.8  -2.7  710  293           
03 26.01.20 210 (ЮЗ) 5{11}  10 км  позёмок  10/0 средняя 
[As trans]
-5.2 -6.9 88 -9  991.4  -2.1  708  292  -12      25  равномерный
мокрый или
старый снег
100% 
06 26.01.20 190 (Ю) 20000 м    10/0 средняя 
[Ac As]
-4.7 -6.4 88 -7  990.7  -0.6  708  291           
09 26.01.20 240 (ЮЗ) 20000 м  {снег}  10/0 средняя 
[Ac As]
-2.9 -5.3 83 -2  989.1  -1.2  707  288           
12 26.01.20 360 (С) 20000 м  {снег}  9/0 средняя, верхняя 
[Ac trans|Cs]
-5.4 -9.5 73 -9  991  1.3  708  292           
15 26.01.20 360 (С) 10 км    3/3 600 м 
[Sc]
-6.7 -12.7 62 -9  993.9  2.5  710  294    -2.1  0.0     
18 26.01.20 230 (ЮЗ) 10 км    ясно 
-9.6 -13 76 -11  996.6  2.1  711  298           
21 26.01.20 300 (СЗ) 10 км    ясно 
-6.4 -13.1 59 -6  997.9  1.8  713  295           
00 27.01.20 240 (ЮЗ) 10 км    6/6 1000 м 
[Sc]
-7.5 -12.4 68 -10  999.2  713  297           
03 27.01.20 200 (Ю) 10 км    8/8 600 м 
[Sc]
-8.9 -12.4 76 -11  1000.6  1.1  714  299  -10      25  равномерный
мокрый или
старый снег
100% 
06 27.01.20 290 (З) 20000 м  {снег}  6/6 600 м 
[Sc]
-6.4 -10.6 72 -10  1001  0.8  715  296           
09 27.01.20 240 (ЮЗ) 4{12}  20000 м    6/0 средняя 
[Ac trans]
-6.4 -14 55 -10  1001.4  0.4  715  296           
12 27.01.20 220 (ЮЗ) 20000 м    10/0 средняя 
[As trans]
-9 -13.2 72 -14  1001.8  0.1  715  299           
15 27.01.20 200 (Ю) 4000 м  слаб. снег  10/0 средняя 
[As op]
-10.2 -12.5 83 -14  1001.5  -0.5  715  300    -5.4  0.0     
18 27.01.20 010 (С) 4000 м  слаб. снег  10/0 средняя 
[As op]
-10.4 -12.2 87 -10  1001.3  -0.2  715  300           
Время (UTC), дата Ветер
(°,м/с) 
Видим.   Явления Облачность Т
(°С)
Тd
(°С)
f(%) Тe
(°С)
Pmin
(гПа)
dP
(гПа)
Po
(мм)
O2
(г/м3)
Тmin Tmax R s Состояние
почвы

Для получения пояснительной информации подведите курсор к названию столбца.

ПОГОДА в Магнитогорске - архив

Всё, что Вы хотите узнать о погоде в Магнитогорске - удобно и подробно!

Выберите нужную дату (начиная с 1 января 2019* года) и нажмите кнопку "Найти".
Будут отображены архивные сводки погоды по пункту Магнитогорск, начиная с указанной даты.


Отображать данные в формате CSV (для использования в таблицах Excel)


Внимание! Наш архив погоды предназначен исключительно для личного некоммерческого использования в познавательных целях. Если Вам необходимы официальные справки о состоянии погоды (для производственных, юридических, коммерческих и т.п. целей), обращайтесь в органы Росгидромета.

*Примечание: данная дата относится к архиву по метеостанциям СССР (Россия, СНГ, Балтия).
Архив по метеостанциям Зарубежной Европы и Азии (кроме Китая) хранится 10 дней, по другим регионам земного шара (Китай, Африка, Америка, Австралия, Океания) - 1 день.

Магнитогорск - район местоположения метеостанции


Название, широта, долгота, высота метеостанции:
Магнитогорск 53.3°ш. 59.1°д. 384 м над ур. моря [Российская Федерация]

Дополнительная информация

В oтличие oт бoльшинства пoгoдных сайтoв мы публикуем пoдрoбную метеoинфoрмацию в детальнoм прoфессиoнальнoм фoрмате.

Характеристики температуры и влажнoсти вoздуха измеряются на высoте 2 м в тени вдали oт зданий и деревьев.
Скoрoсть ветра измеряется на высoте 10 м (на урoвне рoста челoвека скoрoсть ветра ниже в 1.5-2 раза). Если метеoстанция нахoдится в гoрoде или в лесу, тo скoрoсть ветра занижена на 2-4 м/с пo сравнению с oткрытым местoм. Скoрoсть ветра над акватoриями крупных рек и oзёр, а также на вершинах хoлмoв на 2-5 м/с выше, чем в oбычных услoвиях.
Атмoсфернoе давление в разных тoчках местнoсти мoжет значительнo oтличаться oт давления на метеoстанции, в зависимoсти oт услoвий рельефа (при пoдъёме на 10 м давление пoнижается примернo на 1 мм рт.ст.).